STARLINK-34341, 64161

Orbit data source: Space-Track

STARLINK-34341, 64161 is a payload satellite owned by SpaceX/Seattle (US) in SSO that was launched on Tue, 27 May 2025 UTC via an FALCON 9 launch vehicle from the Air Force Western Test Range (AFWTR). Payload-class satellites include a variety of spacecraft equipped with specific instruments for various scientific and technological missions. These include communications satellites like Starlink; space stations such as the ISS; scientific satellites like the Hubble; Earth observation satellites from companies like Planet Labs, Umbra, and HawkEye 360; GPS; miniature CubeSats for education and research; and military/defense satellites.

Loading next visibility...
Identifier
64161, 2025-112R
Orbit
SSO
Country
Flag of USUS
Related business
Manufacturer
SpaceX/Seattle
Mission
Operational Commercial Communications
Bus & Motor
STARLINK V2MO, Unknown motor
Mass
575 kg wet, ~530 kg dry
Launch date (UTC)
2025-05-27 (1 year ago)
Launch vehicle
FALCON 9
Launch site
Air Force Western Test Range (AFWTR)
Object type
Payload
Rocket body
Debris
Shape & HBR
Box + 1 Pan, 17.7 m
Radar Cross Section
41.120 m², Large (>1 m²)

Expand to show TLE details & history
Last TLE update: 1 day ago

TLE from 1 day ago
0 STARLINK-34341
1 64161U 25112R   26237.12872091  .00023289  00000-0  72131-3 0  9990
2 64161  97.2820 284.5373 0001219  97.5850 262.5532 15.33452840 68708
Epoch: 2026-08-25T03:05Z
TLE epoch observation values (Epoch: 2026-08-25T03:05:21.486Z)
Latitude
0.00004°
Longitude
-95.20274°
Altitude
468.74 km
Speed
7.632 km/s
True Right ascension
18h 58m 08s
True Declination
0° 00' 00"
Sunlit
Object was in full shadow at epoch
Visualization orbit readout
Latitude
Unknown
Longitude
Unknown
Altitude
Unknown
Speed
Unknown
Apparent Right ascension
Unknown
Apparent Declination
Unknown
Sunlit
N/A
Visualization observer readout
Local Sidereal Time
23:18:36
Azimuth
Unknown
Elevation
Unknown
Doppler factor
Unknown
Orbital elements
Apogee altitude
463.296 km
Perigee altitude
461.629 km
Semi-major axis
6,840.599 km
Eccentricity
0.00012
Inclination
97.282°
RAAN
284.5373°
Arg. of periapsis
97.585°
True anomaly
262.53935°
Mean anomaly
262.5532°
Eccentric anomaly
262.54627°
Mean motion
3.83621 °/min
Orbital period
93.84 mins
BSTAR
0.00072131
Loading maneuver chart data...
Computing Atmospheric mass density...
Loading historical data...
Loading historical data...
Loading historical data...
Loading historical data...
Loading historical data...
Loading historical data...
Loading historical data...

Documentation

Showing up to 5 results
|